Regional Weather Roundup
Issued by NWS

Home | Current Version | Previous Version | Graphics & Text | Print | Product List | Glossary On
Versions: 1 2 3 4 5 6 7 8 9 10 11 12 13 14 15 16 17 18 19 20 21 22 23 24 25 26 27 28 29 30 31 32 33 34 35 36 37 38 39 40 41 42 43 44 45 46 47 48 49 50
000
ASUS43 KIND 161909
RWRIN

WEATHER ROUNDUP FOR INDIANA
NATIONAL WEATHER SERVICE INDIANAPOLIS IN
200 PM EST THU NOV 16 2017

NOTE: "FAIR" INDICATES FEW OR NO CLOUDS BELOW 12,000 FEET WITH NO
SIGNIFICANT WEATHER AND/OR OBSTRUCTIONS TO VISIBILITY.

* - STATION DOES NOT REPORT WEATHER SUCH AS PRECIPITATION OR FOG.

+ - STATION NOT QUALITY CONTROLLED BY THE NATIONAL WEATHER SERVICE.
    USE DATA WITH CAUTION...ESPECIALLY DEWPOINT AND RELATIVE
    HUMIDITY OBSERVATIONS.

INZ001>003-010>013-019-020-162000-
NORTHWEST INDIANA

CITY           SKY/WX    TMP DP  RH WIND       PRES   REMARKS
GARY /AIRPORT/ CLOUDY    39  28  65 NW8G20    30.24R WCI  34
KNOX *+        CLOUDY    37  32  81 NW12      30.21R WCI  30
LA PORTE +     DRIZZLE   37  34  88 NW9       30.21R WCI  30
MICHIGAN CITY+ DRIZZLE   37  32  81 NW6       30.22R WCI  33
MONTICELLO +   CLOUDY    36  29  78 W7        30.22S WCI  30
RENSSELAER +   CLOUDY    36  27  69 NW5       30.23S WCI  32
VALPARAISO     CLOUDY    40  30  67 NW9       30.22R WCI  34

$$

LMZ046-743>745-162000-
SOUTHERN LAKE MICHIGAN

STATION/POSITION TIME  TEMP    WIND        PRES    WAVE
                       AIR SEA DIR/SP/G            HT
                 (UTC) (F)     (DEG/KT/KT) (MB)    (FT)
BURNS HARBOR     1840   38     330/  7/ 15 1024.0R
MICHIGAN CITY    1840   38     320/ 13/ 15   N/A

$$

INZ004-005-014>016-021>024-162000-
NORTH CENTRAL INDIANA

CITY           SKY/WX    TMP DP  RH WIND       PRES   REMARKS
ELKHART        CLOUDY    37  32  81 NW12G20   30.18R WCI  30
GOSHEN         LGT RAIN  39  31  72 NW14      30.17S WCI  31
LOGANSPORT +   CLOUDY    36  30  80 W8        30.22S WCI  29
PERU/GRISSOM   CLOUDY    38  32  80 W10       30.20S WCI  31
ROCHESTER +    CLOUDY    41  32  70 W9        30.20R
SOUTH BEND     CLOUDY    37  33  85 N12       30.20R WCI  29
WARSAW +       CLOUDY    37  34  87 NW9       30.17S WCI  31

$$

INZ006>009-017-018-025>027-162000-
NORTHEAST INDIANA

CITY           SKY/WX    TMP DP  RH WIND       PRES   REMARKS
AUBURN +       CLOUDY    41  32  70 W14G21    30.15S
FORT WAYNE     CLOUDY    41  34  76 W13       30.16S
HUNTINGTON +   CLOUDY    38  32  79 NW9       30.18R WCI  31
KENDALLVILLE + CLOUDY    39  32  75 NW14      30.14S WCI  31

$$

INZ028-029-035-036-043>045-051>053-162000-
WEST CENTRAL INDIANA

CITY           SKY/WX    TMP DP  RH WIND       PRES   REMARKS
CRAWFORDSVL +    N/A     32  28  86 N5        30.23  WCI  27
GREENCASTLE +  CLOUDY    34  28  80 N5        30.23F WCI  30
LAFAYETTE      CLOUDY    36  29  75 N6        30.24R WCI  31
TERRE HAUTE    MOSUNNY   41  30  65 N6        30.23F

$$

INZ030>032-037>040-046>048-054>057-064-065-162000-
CENTRAL INDIANA

CITY           SKY/WX    TMP DP  RH WIND       PRES   REMARKS
CP ATTERBURY + CLOUDY    37  30  75 N5        30.23S WCI  34
COLUMBUS       CLOUDY    37  28  70 N6        30.23S WCI  33
FISHERS *+     CLOUDY    36  32  87 NW6       30.22S WCI  31
FRANKFORT +    CLOUDY    38  32  78 NW7       30.24R WCI  33
GREENWOOD *+   CLOUDY    40  31  72 NW6       30.23S WCI  35
INDIANAPOLIS   CLOUDY    36  28  73 VRB5      30.23S WCI  32
-EAGLE CREEK   CLOUDY    37  28  70 VRB5      30.22S WCI  33
KOKOMO +       CLOUDY    36  31  82 W13       30.21S WCI  27
MARION +       CLOUDY    37  32  84 W14       30.21R HAZE    WCI  28
MT COMFORT *+  CLOUDY    36  32  87 NW5       30.22R WCI  32
SHELBYVILLE    CLOUDY    39  28  64 N7        30.21S WCI  34
ZIONSVILLE +   CLOUDY    35  30  83 NW6       30.23R WCI  30

$$

INZ033-034-041-042-049-050-058-059-162000-
EAST CENTRAL INDIANA

CITY           SKY/WX    TMP DP  RH WIND       PRES   REMARKS
MUNCIE         CLOUDY    38  30  73 NW9       30.20R WCI  31
RICHMOND +     CLOUDY    34  30  86 W8        30.19S WCI  27

$$

INZ060-061-067>069-081>083-085>088-162000-
SOUTHWEST INDIANA

CITY           SKY/WX    TMP DP  RH WIND       PRES   REMARKS
EVANSVILLE     CLOUDY    37  30  75 VRB3      30.25S
HUNTINGBURG +  CLOUDY    37  31  78 VRB5      30.24S WCI  33
WASHINGTON +   CLOUDY    38  29  68 NE7       30.24S WCI  33

$$

INZ062-063-066-070>080-084-089>092-162000-
SOUTH CENTRAL AND SOUTHEAST INDIANA

CITY           SKY/WX    TMP DP  RH WIND       PRES   REMARKS
BEDFORD +      CLOUDY    39  30  70 CALM      30.21
BLOOMINGTON    MOSUNNY   41  29  62 VRB5      30.21F
MADISON *+     CLOUDY    36  30  80 N7        30.24R WCI  30
NORTH VERNON + CLOUDY    37  28  70 NW6       30.23  WCI  33
SEYMOUR +      CLOUDY    39  30  70 NE6       30.23S WCI  35

$$





USA.gov is the U.S. government's official web portal to all federal, state and local government web resources and services.